Time,TemperatureF,DewpointF,PressureIn,WindDirection,WindDirectionDegrees,WindSpeedMPH,WindSpeedGustMPH,Humidity,HourlyPrecipIn,Conditions,Clouds,dailyrainin,SoftwareType,DateUTC
2013-04-18 00:03:00,49.0,41.0,30.25,NE,41,0.0,0.0,74,0.00,,,0.01,,2013-04-18 04:03:00,
2013-04-18 00:13:00,49.0,41.0,30.25,NE,41,0.0,0.0,74,0.00,,,0.01,,2013-04-18 04:13:00,
2013-04-18 00:23:00,48.0,40.0,30.27,NE,41,0.0,0.0,74,0.00,,,0.01,,2013-04-18 04:23:00,
2013-04-18 00:33:00,48.0,40.0,30.26,NE,41,0.0,0.0,74,0.00,,,0.01,,2013-04-18 04:33:00,
2013-04-18 00:43:00,47.0,39.0,30.27,NE,41,0.0,0.0,75,0.00,,,0.01,,2013-04-18 04:43:00,
2013-04-18 00:53:00,47.0,39.0,30.27,NE,41,0.0,0.0,75,0.00,,,0.01,,2013-04-18 04:53:00,
2013-04-18 01:02:00,47.0,40.0,30.27,NE,41,0.0,0.0,76,0.00,,,0.01,,2013-04-18 05:02:00,
2013-04-18 01:12:00,47.0,40.0,30.27,NE,41,0.0,0.0,76,0.00,,,0.01,,2013-04-18 05:12:00,
2013-04-18 01:22:00,47.0,40.0,30.27,NE,41,0.0,0.0,76,0.00,,,0.01,,2013-04-18 05:22:00,
2013-04-18 01:33:00,47.0,40.0,30.26,NE,41,0.0,0.0,76,0.00,,,0.01,,2013-04-18 05:33:00,
2013-04-18 01:42:00,46.0,40.0,30.25,NE,41,0.0,0.0,78,0.00,,,0.01,,2013-04-18 05:42:00,
2013-04-18 01:52:00,46.0,40.0,30.25,NE,41,0.0,0.0,78,0.00,,,0.01,,2013-04-18 05:52:00,
2013-04-18 02:02:00,46.0,40.0,30.26,NE,41,0.0,0.0,80,0.00,,,0.01,,2013-04-18 06:02:00,
2013-04-18 02:12:00,45.0,40.0,30.25,NE,41,0.0,0.0,81,0.00,,,0.01,,2013-04-18 06:12:00,
2013-04-18 02:22:00,45.0,40.0,30.25,NE,41,0.0,0.0,81,0.00,,,0.01,,2013-04-18 06:22:00,
2013-04-18 02:32:00,45.0,40.0,30.25,NE,41,0.0,0.0,81,0.00,,,0.01,,2013-04-18 06:32:00,
2013-04-18 02:42:00,45.0,40.0,30.26,NE,41,0.0,0.0,81,0.00,,,0.01,,2013-04-18 06:42:00,
2013-04-18 02:52:00,45.0,40.0,30.26,NE,41,0.0,0.0,81,0.00,,,0.01,,2013-04-18 06:52:00,
2013-04-18 03:02:00,44.0,39.0,30.26,NE,41,0.0,0.0,81,0.00,,,0.01,,2013-04-18 07:02:00,
2013-04-18 03:12:00,44.0,39.0,30.27,NE,41,0.0,0.0,81,0.00,,,0.01,,2013-04-18 07:12:00,
2013-04-18 03:22:00,44.0,39.0,30.27,NE,41,0.0,0.0,81,0.00,,,0.01,,2013-04-18 07:22:00,
2013-04-18 03:32:00,44.0,39.0,30.27,NE,41,0.0,0.0,82,0.00,,,0.01,,2013-04-18 07:32:00,
2013-04-18 03:42:00,44.0,39.0,30.26,NE,41,0.0,0.0,82,0.00,,,0.01,,2013-04-18 07:42:00,
2013-04-18 03:53:00,44.0,39.0,30.26,NE,41,0.0,0.0,82,0.00,,,0.01,,2013-04-18 07:53:00,
2013-04-18 04:02:00,44.0,39.0,30.26,NE,41,0.0,0.0,84,0.00,,,0.01,,2013-04-18 08:02:00,
2013-04-18 04:12:00,43.0,38.0,30.26,NE,41,0.0,0.0,84,0.00,,,0.01,,2013-04-18 08:12:00,
2013-04-18 04:22:00,43.0,38.0,30.26,NE,41,0.0,0.0,84,0.00,,,0.01,,2013-04-18 08:22:00,
2013-04-18 04:32:00,44.0,39.0,30.26,NE,41,0.0,0.0,84,0.00,,,0.01,,2013-04-18 08:32:00,
2013-04-18 04:42:00,44.0,39.0,30.26,NE,41,0.0,0.0,84,0.00,,,0.00,,2013-04-18 08:42:00,
2013-04-18 04:52:00,44.0,39.0,30.26,NE,41,0.0,0.0,84,0.00,,,0.00,,2013-04-18 08:52:00,
2013-04-18 05:02:00,43.0,39.0,30.25,NE,41,0.0,0.0,85,0.00,,,0.00,,2013-04-18 09:02:00,
2013-04-18 05:12:00,43.0,39.0,30.25,NE,41,0.0,0.0,86,0.00,,,0.00,,2013-04-18 09:12:00,
2013-04-18 05:22:00,43.0,39.0,30.25,NE,41,0.0,0.0,86,0.00,,,0.00,,2013-04-18 09:22:00,
2013-04-18 05:33:00,43.0,39.0,30.25,NE,41,0.0,0.0,86,0.00,,,0.00,,2013-04-18 09:33:00,
2013-04-18 05:43:00,42.0,38.0,30.25,NE,41,0.0,0.0,86,0.00,,,0.00,,2013-04-18 09:43:00,
2013-04-18 05:53:00,42.0,38.0,30.25,NE,41,0.0,0.0,86,0.00,,,0.00,,2013-04-18 09:53:00,
2013-04-18 06:03:00,43.0,39.0,30.26,NE,41,0.0,0.0,85,0.00,,,0.00,,2013-04-18 10:03:00,
2013-04-18 06:12:00,43.0,39.0,30.26,NE,41,0.0,0.0,85,0.00,,,0.00,,2013-04-18 10:12:00,
2013-04-18 06:23:00,44.0,39.0,30.26,NE,41,0.0,3.0,84,0.00,,,0.00,,2013-04-18 10:23:00,
2013-04-18 06:32:00,45.0,40.0,30.27,NE,42,0.0,2.0,81,0.00,,,0.00,,2013-04-18 10:32:00,
2013-04-18 06:42:00,45.0,40.0,30.27,NE,42,0.0,2.0,81,0.00,,,0.00,,2013-04-18 10:42:00,
2013-04-18 06:52:00,46.0,40.0,30.27,SSE,167,2.0,5.0,79,0.00,,,0.00,,2013-04-18 10:52:00,
2013-04-18 07:02:00,47.0,41.0,30.27,SE,143,0.0,5.0,79,0.00,,,0.00,,2013-04-18 11:02:00,
2013-04-18 07:12:00,47.0,41.0,30.27,SE,132,0.0,6.0,79,0.00,,,0.00,,2013-04-18 11:12:00,
2013-04-18 07:22:00,47.0,41.0,30.27,SE,132,0.0,6.0,79,0.00,,,0.00,,2013-04-18 11:22:00,
2013-04-18 07:32:00,48.0,42.0,30.27,South,173,0.0,5.0,79,0.00,,,0.00,,2013-04-18 11:32:00,
2013-04-18 07:42:00,49.0,43.0,30.27,East,95,2.0,3.0,80,0.00,,,0.00,,2013-04-18 11:42:00,
2013-04-18 07:52:00,49.0,43.0,30.27,East,95,2.0,3.0,80,0.00,,,0.00,,2013-04-18 11:52:00,
2013-04-18 08:02:00,49.0,43.0,30.28,SE,141,1.0,9.0,79,0.00,,,0.00,,2013-04-18 12:02:00,
2013-04-18 08:12:00,50.0,43.0,30.27,SSE,157,0.0,4.0,76,0.00,,,0.00,,2013-04-18 12:12:00,
2013-04-18 08:22:00,50.0,43.0,30.27,SSE,157,0.0,4.0,76,0.00,,,0.00,,2013-04-18 12:22:00,
2013-04-18 08:32:00,51.0,43.0,30.28,SSE,153,1.0,12.0,73,0.00,,,0.00,,2013-04-18 12:32:00,
2013-04-18 08:42:00,51.0,43.0,30.28,SSE,153,1.0,12.0,73,0.00,,,0.00,,2013-04-18 12:42:00,
2013-04-18 08:52:00,51.0,42.0,30.27,ESE,109,3.0,15.0,71,0.00,,,0.00,,2013-04-18 12:52:00,
2013-04-18 09:02:00,51.0,42.0,30.27,SSE,166,5.0,13.0,71,0.00,,,0.00,,2013-04-18 13:02:00,
2013-04-18 09:12:00,52.0,42.0,30.27,SSE,157,4.0,12.0,69,0.00,,,0.00,,2013-04-18 13:12:00,
2013-04-18 09:22:00,52.0,42.0,30.27,SSE,157,4.0,12.0,69,0.00,,,0.00,,2013-04-18 13:22:00,
2013-04-18 09:32:00,52.0,42.0,30.28,SE,140,5.0,11.0,68,0.00,,,0.00,,2013-04-18 13:32:00,
2013-04-18 09:42:00,52.0,41.0,30.28,SE,135,2.0,9.0,66,0.00,,,0.00,,2013-04-18 13:42:00,
2013-04-18 09:53:00,52.0,41.0,30.28,SE,135,2.0,9.0,66,0.00,,,0.00,,2013-04-18 13:53:00,
2013-04-18 10:02:00,53.0,40.0,30.28,SSW,196,3.0,16.0,61,0.00,,,0.00,,2013-04-18 14:02:00,
2013-04-18 10:12:00,54.0,40.0,30.27,SSE,152,5.0,15.0,58,0.00,,,0.00,,2013-04-18 14:12:00,
2013-04-18 10:22:00,54.0,40.0,30.27,SSE,152,5.0,15.0,58,0.00,,,0.00,,2013-04-18 14:22:00,
2013-04-18 10:32:00,55.0,39.0,30.27,SSW,201,2.0,12.0,54,0.00,,,0.00,,2013-04-18 14:32:00,
2013-04-18 10:43:00,55.0,38.0,30.27,NNE,19,4.0,17.0,52,0.00,,,0.00,,2013-04-18 14:43:00,
2013-04-18 10:52:00,55.0,38.0,30.27,NNE,19,4.0,17.0,52,0.00,,,0.00,,2013-04-18 14:52:00,
2013-04-18 11:03:00,55.0,38.0,30.28,SE,127,2.0,19.0,52,0.00,,,0.00,,2013-04-18 15:03:00,
2013-04-18 11:12:00,55.0,38.0,30.28,SE,127,2.0,19.0,52,0.00,,,0.00,,2013-04-18 15:12:00,
2013-04-18 11:22:00,55.0,38.0,30.28,SSE,153,7.0,13.0,52,0.00,,,0.00,,2013-04-18 15:22:00,
2013-04-18 11:33:00,56.0,39.0,30.28,SSE,148,3.0,11.0,53,0.00,,,0.00,,2013-04-18 15:33:00,
2013-04-18 11:43:00,55.0,39.0,30.28,SSE,160,4.0,12.0,55,0.00,,,0.00,,2013-04-18 15:43:00,
2013-04-18 11:53:00,55.0,39.0,30.28,SSE,160,4.0,12.0,55,0.00,,,0.00,,2013-04-18 15:53:00,
2013-04-18 12:03:00,55.0,41.0,30.27,SE,145,4.0,14.0,59,0.00,,,0.00,,2013-04-18 16:03:00,
2013-04-18 12:13:00,55.0,41.0,30.27,SE,140,1.0,10.0,60,0.00,,,0.00,,2013-04-18 16:13:00,
2013-04-18 12:23:00,55.0,41.0,30.27,SE,140,1.0,10.0,60,0.00,,,0.00,,2013-04-18 16:23:00,
2013-04-18 12:33:00,55.0,43.0,30.26,South,188,3.0,14.0,63,0.00,,,0.00,,2013-04-18 16:33:00,
2013-04-18 12:43:00,54.0,43.0,30.25,SE,136,5.0,12.0,65,0.00,,,0.00,,2013-04-18 16:43:00,
2013-04-18 12:53:00,54.0,43.0,30.25,SE,136,5.0,12.0,65,0.00,,,0.00,,2013-04-18 16:53:00,
2013-04-18 13:03:00,54.0,43.0,30.25,SE,132,2.0,10.0,67,0.00,,,0.00,,2013-04-18 17:03:00,
2013-04-18 13:12:00,54.0,43.0,30.25,SSE,148,5.0,12.0,67,0.00,,,0.00,,2013-04-18 17:12:00,
2013-04-18 13:22:00,54.0,43.0,30.25,SSE,148,5.0,12.0,67,0.00,,,0.00,,2013-04-18 17:22:00,
2013-04-18 13:33:00,54.0,43.0,30.24,SSE,159,7.0,10.0,67,0.00,,,0.00,,2013-04-18 17:33:00,
2013-04-18 13:42:00,54.0,44.0,30.24,SSE,152,3.0,12.0,69,0.00,,,0.00,,2013-04-18 17:42:00,
2013-04-18 13:52:00,54.0,44.0,30.24,SSE,152,3.0,12.0,69,0.00,,,0.00,,2013-04-18 17:52:00,
2013-04-18 14:02:00,54.0,44.0,30.23,ESE,109,8.0,18.0,69,0.00,,,0.00,,2013-04-18 18:02:00,
2013-04-18 14:12:00,53.0,43.0,30.22,SSW,195,3.0,11.0,70,0.00,,,0.00,,2013-04-18 18:12:00,
2013-04-18 14:23:00,53.0,43.0,30.22,SSW,195,3.0,11.0,70,0.00,,,0.00,,2013-04-18 18:23:00,
2013-04-18 14:32:00,53.0,44.0,30.22,ESE,112,5.0,14.0,72,0.00,,,0.00,,2013-04-18 18:32:00,
2013-04-18 14:42:00,53.0,45.0,30.22,SSE,151,4.0,12.0,73,0.00,,,0.00,,2013-04-18 18:42:00,
2013-04-18 14:52:00,53.0,45.0,30.22,SSE,151,4.0,12.0,73,0.00,,,0.00,,2013-04-18 18:52:00,
2013-04-18 15:02:00,53.0,45.0,30.21,South,179,3.0,20.0,74,0.00,,,0.00,,2013-04-18 19:02:00,
2013-04-18 15:12:00,53.0,45.0,30.21,South,179,3.0,20.0,74,0.00,,,0.00,,2013-04-18 19:12:00,
2013-04-18 15:22:00,52.0,45.0,30.21,SSE,160,2.0,11.0,78,0.00,,,0.00,,2013-04-18 19:22:00,
2013-04-18 15:32:00,52.0,46.0,30.20,East,88,3.0,11.0,79,0.00,,,0.00,,2013-04-18 19:32:00,
2013-04-18 15:42:00,51.0,45.0,30.20,South,171,2.0,11.0,81,0.00,,,0.00,,2013-04-18 19:42:00,
2013-04-18 15:53:00,51.0,45.0,30.20,South,171,2.0,11.0,81,0.00,,,0.00,,2013-04-18 19:53:00,
2013-04-18 16:02:00,51.0,46.0,30.20,SSE,157,3.0,15.0,82,0.00,,,0.00,,2013-04-18 20:02:00,
2013-04-18 16:12:00,51.0,46.0,30.19,SSW,193,6.0,13.0,83,0.00,,,0.00,,2013-04-18 20:12:00,
2013-04-18 16:22:00,51.0,46.0,30.19,SSW,193,6.0,13.0,83,0.00,,,0.00,,2013-04-18 20:22:00,
2013-04-18 16:32:00,51.0,46.0,30.18,SSE,166,1.0,11.0,84,0.00,,,0.00,,2013-04-18 20:32:00,
2013-04-18 16:42:00,51.0,47.0,30.17,SE,142,6.0,17.0,85,0.00,,,0.00,,2013-04-18 20:42:00,
2013-04-18 16:52:00,51.0,47.0,30.17,SE,142,6.0,17.0,85,0.00,,,0.00,,2013-04-18 20:52:00,
2013-04-18 17:02:00,51.0,47.0,30.17,SE,144,3.0,7.0,85,0.00,,,0.00,,2013-04-18 21:02:00,
2013-04-18 17:12:00,51.0,47.0,30.17,SSE,167,2.0,10.0,86,0.00,,,0.00,,2013-04-18 21:12:00,
2013-04-18 17:22:00,51.0,47.0,30.17,SSE,167,2.0,10.0,86,0.00,,,0.00,,2013-04-18 21:22:00,
2013-04-18 17:33:00,50.0,46.0,30.17,SE,128,2.0,9.0,87,0.00,,,0.00,,2013-04-18 21:33:00,
2013-04-18 17:43:00,50.0,46.0,30.16,South,189,5.0,7.0,87,0.00,,,0.00,,2013-04-18 21:43:00,
2013-04-18 17:53:00,50.0,46.0,30.16,South,189,5.0,7.0,87,0.00,,,0.00,,2013-04-18 21:53:00,
2013-04-18 18:02:00,50.0,47.0,30.16,South,182,0.0,11.0,88,0.00,,,0.00,,2013-04-18 22:02:00,
2013-04-18 18:13:00,50.0,47.0,30.15,ESE,123,2.0,6.0,89,0.00,,,0.00,,2013-04-18 22:13:00,
2013-04-18 18:23:00,50.0,47.0,30.15,ESE,123,2.0,6.0,89,0.00,,,0.00,,2013-04-18 22:23:00,
2013-04-18 18:32:00,50.0,47.0,30.15,NE,46,1.0,9.0,90,0.00,,,0.00,,2013-04-18 22:32:00,
2013-04-18 18:42:00,50.0,48.0,30.14,South,183,6.0,9.0,92,0.00,,,0.00,,2013-04-18 22:42:00,
2013-04-18 18:52:00,50.0,48.0,30.14,South,183,6.0,9.0,92,0.00,,,0.00,,2013-04-18 22:52:00,
2013-04-18 19:04:00,50.0,48.0,30.14,South,186,0.0,10.0,93,0.00,,,0.00,,2013-04-18 23:04:00,
2013-04-18 19:12:00,50.0,48.0,30.14,SE,140,3.0,7.0,93,0.00,,,0.00,,2013-04-18 23:12:00,
2013-04-18 19:21:00,50.0,48.0,30.14,SE,140,3.0,7.0,93,0.00,,,0.00,,2013-04-18 23:21:00,
2013-04-18 19:32:00,50.0,48.0,30.14,SSE,165,2.0,8.0,94,0.00,,,0.00,,2013-04-18 23:32:00,
2013-04-18 19:42:00,50.0,48.0,30.13,SSE,165,1.0,6.0,94,0.00,,,0.00,,2013-04-18 23:42:00,
2013-04-18 19:52:00,50.0,48.0,30.13,SSE,165,1.0,6.0,94,0.00,,,0.00,,2013-04-18 23:52:00,
2013-04-18 20:01:00,50.0,49.0,30.14,SE,130,1.0,6.0,95,0.00,,,0.00,,2013-04-19 00:01:00,
2013-04-18 20:12:00,50.0,49.0,30.13,SSE,155,0.0,5.0,95,0.00,,,0.00,,2013-04-19 00:12:00,
2013-04-18 20:22:00,50.0,49.0,30.13,SSE,155,0.0,5.0,95,0.00,,,0.00,,2013-04-19 00:22:00,
2013-04-18 20:32:00,50.0,49.0,30.12,SSE,168,1.0,5.0,95,0.00,,,0.00,,2013-04-19 00:32:00,
2013-04-18 20:42:00,50.0,49.0,30.12,SSE,165,2.0,7.0,95,0.00,,,0.00,,2013-04-19 00:42:00,
2013-04-18 20:52:00,50.0,49.0,30.12,SSE,165,2.0,7.0,95,0.00,,,0.00,,2013-04-19 00:52:00,
2013-04-18 21:01:00,50.0,49.0,30.11,South,172,1.0,6.0,95,0.00,,,0.00,,2013-04-19 01:01:00,
2013-04-18 21:11:00,50.0,49.0,30.11,South,176,0.0,4.0,95,0.00,,,0.00,,2013-04-19 01:11:00,
2013-04-18 21:21:00,50.0,49.0,30.11,South,176,0.0,4.0,95,0.00,,,0.00,,2013-04-19 01:21:00,
2013-04-18 21:32:00,51.0,50.0,30.11,SSE,165,0.0,4.0,96,0.00,,,0.00,,2013-04-19 01:32:00,
2013-04-18 21:42:00,51.0,50.0,30.11,SSE,147,0.0,5.0,96,0.00,,,0.00,,2013-04-19 01:42:00,
2013-04-18 21:52:00,51.0,50.0,30.11,SSE,147,0.0,5.0,96,0.00,,,0.00,,2013-04-19 01:52:00,
2013-04-18 22:02:00,51.0,50.0,30.10,SSE,150,1.0,6.0,96,0.00,,,0.00,,2013-04-19 02:02:00,
2013-04-18 22:11:00,51.0,50.0,30.10,SSE,150,1.0,6.0,96,0.00,,,0.00,,2013-04-19 02:11:00,
2013-04-18 22:21:00,51.0,50.0,30.10,South,180,3.0,9.0,96,0.00,,,0.00,,2013-04-19 02:21:00,
2013-04-18 22:32:00,51.0,50.0,30.09,SSE,160,0.0,6.0,96,0.00,,,0.00,,2013-04-19 02:32:00,
2013-04-18 22:42:00,51.0,50.0,30.09,SSE,152,1.0,5.0,96,0.00,,,0.00,,2013-04-19 02:42:00,
2013-04-18 22:52:00,51.0,50.0,30.09,SSE,152,1.0,5.0,96,0.00,,,0.00,,2013-04-19 02:52:00,
2013-04-18 23:01:00,51.0,50.0,30.07,South,169,0.0,7.0,96,0.00,,,0.00,,2013-04-19 03:01:00,
2013-04-18 23:12:00,51.0,50.0,30.07,SE,138,1.0,4.0,96,0.00,,,0.00,,2013-04-19 03:12:00,
2013-04-18 23:21:00,51.0,50.0,30.07,SE,138,1.0,4.0,96,0.00,,,0.00,,2013-04-19 03:21:00,
2013-04-18 23:33:00,51.0,50.0,30.06,SE,136,0.0,5.0,97,0.00,,,0.00,,2013-04-19 03:33:00,
2013-04-18 23:43:00,52.0,51.0,30.06,SE,138,0.0,5.0,97,0.00,,,0.00,,2013-04-19 03:43:00,
2013-04-18 23:53:00,52.0,51.0,30.06,SE,138,0.0,5.0,97,0.00,,,0.00,,2013-04-19 03:53:00,